Location: Moscow
(55.7500°N, 37.5830°E)
Time: 00:33:03
(UTC+03:00)

Explorer 7 - Pass Details

Date: 03 December 2021
Orbit: 483 x 674 km, 50.3° (Epoch: 17 January)

Event Time Altitude Azimuth Distance (km) Brightness Sun altitude
Rises 09:53:23 0° 262° (W) 2,700 10.1 6.2°
Reaches altitude 10° 09:55:47 10° 254° (WSW) 1,775 9.3 6.4°
Maximum altitude 09:59:28 36° 188° (S) 828 8.5 6.6°
Drops below altitude 10° 10:02:59 10° 121° (ESE) 1,697 10.6 6.9°
Sets 10:05:14 0° 112° (ESE) 2,562 11.2 7.1°
